Regional Weather Roundup
Issued by NWS

Home | Current Version | Previous Version | Graphics & Text | Print | Product List | Glossary On
Versions: 1 2 3 4 5 6 7 8 9 10 11 12 13 14 15 16 17 18 19 20 21 22 23 24 25 26 27 28 29 30 31 32 33 34 35 36 37 38 39 40 41 42 43 44 45 46 47 48 49 50
000
ASUS43 KIND 261309
RWRIN

WEATHER ROUNDUP FOR INDIANA
NATIONAL WEATHER SERVICE INDIANAPOLIS IN
900 AM EDT WED JUL 26 2017

NOTE: "FAIR" INDICATES FEW OR NO CLOUDS BELOW 12,000 FEET WITH NO
SIGNIFICANT WEATHER AND/OR OBSTRUCTIONS TO VISIBILITY.

* - STATION DOES NOT REPORT WEATHER SUCH AS PRECIPITATION OR FOG.

+ - STATION NOT QUALITY CONTROLLED BY THE NATIONAL WEATHER SERVICE.
    USE DATA WITH CAUTION...ESPECIALLY DEWPOINT AND RELATIVE
    HUMIDITY OBSERVATIONS.

INZ001>003-010>013-019-020-261400-
NORTHWEST INDIANA

CITY           SKY/WX    TMP DP  RH WIND       PRES   REMARKS
GARY /AIRPORT/ PTSUNNY   68  61  77 S7        30.11S
KNOX *+        CLOUDY    66  63  88 S8        30.13S
LA PORTE +     CLOUDY    66  62  86 S5        30.14S
MICHIGAN CITY+ PTSUNNY   68  61  77 S5        30.13S
MONTICELLO +   SUNNY     66  62  88 SE6       30.13S
RENSSELAER +   MOSUNNY   64  61  88 S7        30.13S
VALPARAISO     CLOUDY    66  62  87 S5        30.13S

$$

LMZ046-743>745-261400-
SOUTHERN LAKE MICHIGAN

STATION/POSITION TIME  TEMP    WIND        PRES    WAVE
                       AIR SEA DIR/SP/G            HT
                 (UTC) (F)     (DEG/KT/KT) (MB)    (FT)
BURNS HARBOR     1240   68     180/  8/ 15 1020.0S
MICHIGAN CITY    1240   68     160/ 10/ 14   N/A
5NW MICH CITY    1300   69 74  180/ 10/ 12   N/A     1

$$

INZ004-005-014>016-021>024-261400-
NORTH CENTRAL INDIANA

CITY           SKY/WX    TMP DP  RH WIND       PRES   REMARKS
ELKHART        CLOUDY    68  59  73 W6        30.15S
GOSHEN         CLOUDY    67  60  78 S7        30.15S
LOGANSPORT +   SUNNY     66  63  88 S6        30.14F
PERU/GRISSOM   SUNNY     68  64  86 S10       30.13F
ROCHESTER +    MOSUNNY   70  63  78 S5        30.15S
SOUTH BEND     CLOUDY    67  61  81 S7        30.14S
WARSAW +       CLOUDY    64  61  88 CALM      30.15S

$$

INZ006>009-017-018-025>027-261400-
NORTHEAST INDIANA

CITY           SKY/WX    TMP DP  RH WIND       PRES   REMARKS
AUBURN +       MOSUNNY   68  61  77 CALM      30.19R
FORT WAYNE     CLOUDY    68  61  78 S7        30.17R
HUNTINGTON +   MOSUNNY   65  63  91 CALM      30.17R
KENDALLVILLE + PTSUNNY   67  62  85 SW5       30.18R

$$

INZ028-029-035-036-043>045-051>053-261400-
WEST CENTRAL INDIANA

CITY           SKY/WX    TMP DP  RH WIND       PRES   REMARKS
GREENCASTLE +  SUNNY     66  63  88 SE5       30.14S
LAFAYETTE      SUNNY     68  64  87 SE3       30.12S
TERRE HAUTE    SUNNY     70  64  81 SE5       30.12S

$$

INZ030>032-037>040-046>048-054>057-064-065-261400-
CENTRAL INDIANA

CITY           SKY/WX    TMP DP  RH WIND       PRES   REMARKS
ANDERSON       SUNNY     66  61  82 MISG      30.17
CP ATTERBURY + SUNNY     66  63  88 SE5       30.16R
COLUMBUS       MOSUNNY   64  61  88 SE3       30.16S
FISHERS *+     SUNNY     68  66  94 SE5       30.16
FRANKFORT +    MOSUNNY   70  65  86 CALM      30.16S
GREENWOOD *+   SUNNY    N/A N/A N/A SE8       30.16R
INDIANAPOLIS   MOSUNNY   68  62  81 SE5       30.15R
-EAGLE CREEK   SUNNY     70  61  73 SE7       30.15R
KOKOMO +       SUNNY     67  63  87 S8        30.16S
MARION +       SUNNY     64  61  88 S6        30.17S
MT COMFORT *+  SUNNY     64  61  88 SE5       30.16R
SHELBYVILLE    SUNNY     69  61  75 SE6       30.15S
ZIONSVILLE +   SUNNY     67  62  84 SE3       30.17R

$$

INZ033-034-041-042-049-050-058-059-261400-
EAST CENTRAL INDIANA

CITY           SKY/WX    TMP DP  RH WIND       PRES   REMARKS
MUNCIE         SUNNY     70  61  73 S5        30.17R
RICHMOND +     SUNNY     64  61  88 S5        30.19R

$$

INZ060-061-067>069-081>083-085>088-261400-
SOUTHWEST INDIANA

CITY           SKY/WX    TMP DP  RH WIND       PRES   REMARKS
EVANSVILLE     SUNNY     71  67  87 SE3       30.10F
HUNTINGBURG *+ MOSUNNY   74  67  78 E6        30.12S

$$

INZ062-063-066-070>080-084-089>092-261400-
SOUTH CENTRAL AND SOUTHEAST INDIANA

CITY           SKY/WX    TMP DP  RH WIND       PRES   REMARKS
BEDFORD +      SUNNY     70  63  78 CALM      30.13S
BLOOMINGTON    SUNNY     70  63  78 SE5       30.14S
MADISON *+     SUNNY     68  61  77 E5        30.17S
SEYMOUR +      SUNNY     68  63  83 CALM      30.14S

$$




USA.gov is the U.S. government's official web portal to all federal, state and local government web resources and services.